"Pseudo-MPEC" for P1162nQ

Created 2020 Sep 19 21:07:25 UT using Find_Orb

Click here for an explanation of pseudo-MPECs

 
 Astrometry: 
     P1162nQ  C2020 09 14Nr86EVmAstrometryDtJredacted;_:clickTw?bur,/1d]T\1dMF51
     P1162nQ  C2020 09 14=,!5ElZU9XOc=Cq:4jihere@y*7.@Sfor@_[7k\Lj(`yB)_5LWPiF51
     P1162nQ  C2020 09 14ktexplanation2es2IdujoOy,t5X?rr:6GS%N0UqUO)@#oDgj4__F51

Station data:
(F51) Pan-STARRS 1, Haleakala  (N20.707235 W156.255910)  US/Hawaii.
   Observers N. Primak, A. Schultz, S. Watters, J. Thiel, T. Goggia. Measurer
   PS1 Science Consortium. 1.8-m Ritchey-Chrétien + CCD.

Orbital elements:  P1162nQ
   Perihelion 2021 May 22.598103 +/- 118 TT = 14:21:16 (JD 2459357.098103)
Epoch 2020 Sep 14.0 TT = JDT 2459106.5   Earth MOID: 0.2289   AutoNEOCP
M 216.57185595 +/- 110              (J2000 ecliptic)
n   0.57234329 +/- 0.372            Peri.  343.69629 +/- 80
a   1.43669633 +/- 0.623            Node   154.29022 +/- 32
e   0.1564190 +/- 0.275             Incl.   36.34936 +/- 23
P   1.72/628.98d           H 21.9   G  0.15   U 12.1  SR
q 1.21196965 +/- 0.537    Q 1.66142301 +/- 28.6
From 3 observations 2020 Sept. 14 (39.3 min); mean residual 0".09
Residuals in arcseconds: 
200914 F51  .08-  .04-    200914 F51  .16+  .07+    200914 F51  .08-  .04-    

Ephemerides (geocentric):
Date (UTC) HH   RA              Dec         delta   r     elong  mag " sig PA
---- -- -- --  -------------   -----------  ------ ------ -----  --- ---- ---
2020 09 19 21  22 27 37.925   -30 17 27.21  .69265 1.6212 145.0 23.2 6556  76
2020 09 19 22  22 27 34.960   -30 18 57.57  .69289 1.6211 144.9 23.2 6760  76
2020 09 19 23  22 27 31.999   -30 20 27.80  .69312 1.6211 144.9 23.2 6974  76
2020 09 20 00  22 27 29.042   -30 21 57.92  .69336 1.6211 144.8 23.2 7197  76
2020 09 20 01  22 27 26.088   -30 23 27.92  .69360 1.6210 144.8 23.2 7431  76
2020 09 20 02  22 27 23.139   -30 24 57.81  .69384 1.6210 144.7 23.2 7677  76
2020 09 20 03  22 27 20.192   -30 26 27.57  .69407 1.6209 144.6 23.2 7934  77
2020 09 20 04  22 27 17.250   -30 27 57.21  .69431 1.6209 144.6 23.2 8205  77
2020 09 20 05  22 27 14.311   -30 29 26.73  .69455 1.6208 144.5 23.2 8490  77
2020 09 20 06  22 27 11.376   -30 30 56.14  .69479 1.6208 144.5 23.2 8790  77
2020 09 20 07  22 27 08.445   -30 32 25.42  .69503 1.6207 144.4 23.2 9106  77
2020 09 20 08  22 27 05.518   -30 33 54.59  .69527 1.6207 144.3 23.2 9440  78
2020 09 20 09  22 27 02.594   -30 35 23.64  .69551 1.6206 144.3 23.2 9794  78
2020 09 20 10  22 26 59.675   -30 36 52.57  .69575 1.6206 144.2 23.2 169'  78
2020 09 20 11  22 26 56.759   -30 38 21.37  .69600 1.6205 144.2 23.2 176'  79
2020 09 20 12  22 26 53.847   -30 39 50.06  .69624 1.6205 144.1 23.2 183'  79
2020 09 20 13  22 26 50.938   -30 41 18.63  .69648 1.6204 144.1 23.2 191'  80
2020 09 20 14  22 26 48.034   -30 42 47.09  .69672 1.6204 144.0 23.2 199'  80
2020 09 20 15  22 26 45.133   -30 44 15.42  .69697 1.6203 143.9 23.2 207'  81
2020 09 20 16  22 26 42.236   -30 45 43.63  .69721 1.6203 143.9 23.2 216'  81
2020 09 20 17  22 26 39.344   -30 47 11.72  .69745 1.6202 143.8 23.2 226'  82
2020 09 20 18  22 26 36.454   -30 48 39.70  .69770 1.6202 143.8 23.2 236'  83
2020 09 20 19  22 26 33.569   -30 50 07.55  .69794 1.6201 143.7 23.2 248'  84
2020 09 20 20  22 26 30.688   -30 51 35.29  .69819 1.6201 143.6 23.2 260'  85
2020 09 20 21  22 26 27.811   -30 53 02.90  .69843 1.6201 143.6 23.2 272'  86
2020 09 20 22  22 26 24.937   -30 54 30.40  .69868 1.6200 143.5 23.2 286'  87
2020 09 20 23  22 26 22.068   -30 55 57.78  .69893 1.6200 143.5 23.2 301'  89
2020 09 21 00  22 26 19.202   -30 57 25.04  .69917 1.6199 143.4 23.2 318'  92
2020 09 21 01  22 26 16.340   -30 58 52.18  .69942 1.6199 143.3 23.2 336'  96
2020 09 21 02  22 26 13.483   -31 00 19.19  .69967 1.6198 143.3 23.2 361' 105
2020 09 21 03  22 26 10.629   -31 01 46.09  .69991 1.6198 143.2 23.2 422' 124
2020 09 21 04  22 26 07.779   -31 03 12.88  .70016 1.6197 143.2 23.2 637' 149
2020 09 21 05  22 26 04.933   -31 04 39.54  .70041 1.6197 143.1 23.2 810' 158
2020 09 21 06  22 26 02.091   -31 06 06.08  .70066 1.6196 143.0 23.2 869' 161
2020 09 21 07  22 25 59.253   -31 07 32.50  .70091 1.6196 143.0 23.2 893' 164
2020 09 21 08  22 25 56.420   -31 08 58.80  .70116 1.6195 142.9 23.2 905' 166
2020 09 21 09  22 25 53.590   -31 10 24.99  .70141 1.6195 142.9 23.2 911' 168
2020 09 21 10  22 25 50.764   -31 11 51.05  .70166 1.6194 142.8 23.2 916' 170
2020 09 21 11  22 25 47.942   -31 13 17.00  .70191 1.6194 142.8 23.2 919' 171
2020 09 21 12  22 25 45.124   -31 14 42.82  .70216 1.6193 142.7 23.2 923' 173
2020 09 21 13  22 25 42.311   -31 16 08.53  .70241 1.6193 142.6 23.2 927' 175
2020 09 21 14  22 25 39.501   -31 17 34.12  .70266 1.6192 142.6 23.2 933' 177
2020 09 21 15  22 25 36.695   -31 18 59.59  .70292 1.6192 142.5 23.2 939' 179
2020 09 21 16  22 25 33.894   -31 20 24.93  .70317 1.6191 142.5 23.2 946'   0
2020 09 21 17  22 25 31.096   -31 21 50.16  .70342 1.6191 142.4 23.2 955'   2
2020 09 21 18  22 25 28.303   -31 23 15.27  .70367 1.6190 142.3 23.2 965'   3
2020 09 21 19  22 25 25.514   -31 24 40.26  .70393 1.6190 142.3 23.2 976'   5
2020 09 21 20  22 25 22.728   -31 26 05.13  .70418 1.6189 142.2 23.2 988'   6